Location: Bullards Ferry
(33.9807°N, 82.8096°W)
Time: 13:09:13
(UTC+00:00)

Envisat - Visible Passes

Search period start: 01 December 2021 00:00
Search period end: 11 December 2021 00:00
Orbit: 764 x 766 km, 98.2° (Epoch: 01 December)

Date Brightness Start Highest point End Pass type
(mag) Time Alt. Az. Time Alt. Az. Time Alt. Az.
01 Dec 6.0 09:12:32 10° ENE 09:14:46 13° E 09:16:59 10° ESE visible
01 Dec 3.0 10:49:06 10° N 10:54:05 58° WNW 10:59:03 10° SSW visible
02 Dec 3.5 10:12:15 10° NNE 10:17:16 58° E 10:22:15 10° S visible
02 Dec 4.5 11:53:11 10° NW 11:55:44 14° WNW 11:58:17 10° W visible
02 Dec 6.1 23:04:15 10° SW 23:07:01 15° W 23:09:47 10° WNW visible
03 Dec 5.1 09:36:12 10° NE 09:40:17 24° E 09:44:20 10° SSE visible
03 Dec 3.6 11:14:47 10° N 11:19:15 32° WNW 11:23:41 10° SW visible
04 Dec 2.8 10:37:29 10° N 10:42:34 76° WNW 10:47:36 10° SSW visible
05 Dec 4.0 10:00:51 10° NNE 10:05:42 44° E 10:10:31 10° S visible
05 Dec 4.3 11:40:57 10° NNW 11:44:19 18° WNW 11:47:40 10° WSW visible
05 Dec 5.9 22:51:47 10° SW 22:55:22 19° W 22:58:57 10° NW visible
06 Dec 5.5 09:25:09 10° NE 09:28:38 18° E 09:32:07 10° SE visible
06 Dec 3.3 11:03:01 10° N 11:07:45 41° WNW 11:12:29 10° SW visible
07 Dec 3.0 10:25:55 10° NNE 10:31:01 83° ESE 10:36:06 10° S visible
08 Dec 4.6 09:49:30 10° NNE 09:54:06 34° E 09:58:40 10° SSE visible
08 Dec 4.0 11:28:56 10° NNW 11:32:52 23° WNW 11:36:48 10° WSW visible
08 Dec 5.6 22:39:36 10° SSW 22:43:44 25° W 22:47:53 10° NW visible
09 Dec 5.8 09:14:23 10° ENE 09:16:59 14° E 09:19:35 10° ESE visible
09 Dec 3.0 10:51:19 10° N 10:56:16 54° WNW 11:01:11 10° SSW visible
10 Dec 3.4 10:14:24 10° NNE 10:19:28 63° E 10:24:29 10° S visible
10 Dec 4.6 11:55:39 10° NW 11:57:53 13° WNW 12:00:06 10° W visible
10 Dec 6.1 23:06:49 10° WSW 23:09:13 13° W 23:11:40 10° WNW visible
